Change the Weather History Date:

Tuesday, September 10, 2013

  Actual Average Record
Temperature  
Mean Temperature 72 °F 66 °F  
Max Temperature 91 °F 83 °F 100 °F (1993)
Min Temperature 53 °F 48 °F 41 °F (1989)
Degree Days  
Heating Degree Days 0 2  
Month to date heating degree days 1 12  
Since 1 July heating degree days 1 24  
Cooling Degree Days 7 2  
Month to date cooling degree days 72 32  
Year to date cooling degree days 934 689  
Growing Degree Days 22 (Base 50)    
Moisture  
Dew Point 57 °F    
Average Humidity 67    
Maximum Humidity 100    
Minimum Humidity 34    
Precipitation  
Precipitation 0.00 in 0.01 in 0.25 in (2000)
Month to date precipitation 0.43 0.10  
Year to date precipitation 3.75 5.58  
Snow  
Snow 0.00 in - - ()
Snow Depth 0.00 in    
Sea Level Pressure  
Sea Level Pressure 29.91 in    
Wind  
Wind Speed 5 mph (NNW)    
Max Wind Speed 13 mph    
Max Gust Speed 16 mph    
Visibility 10 miles    
Events      
T = Trace of Precipitation, MM = Missing Value Source: NWS Daily Summary

Daily Weather History Graph

Daily Weather History Graph

Search for Another Location

Airport or City:

Trip Planner

Search our weather history database for the weather conditions in past years. The results will help you decide how hot, cold, wet, or windy it might be!

Date:

Astronomy

Sep. 10, 2013 Rise Set
Actual Time 6:28 AM PDT 7:17 PM PDT
Civil Twilight 5:58 AM PDT 7:47 PM PDT
Nautical Twilight 5:21 AM PDT 8:23 PM PDT
Astronomical Twilight 4:43 AM PDT 9:01 PM PDT
Moon 12:19 PM PDT (9/10) 10:03 PM PDT (9/10)
Length of Visible Light 13h 49m
Length of Day
12h 48m
Waxing Crescent, 29% of the Moon is Illuminated
Sep 10
Waxing Crescent
Sep 12
First Quarter
Sep 19
Full
Sep 26
Last Quarter
Oct 4
New

Hourly Weather History & Observations

Time (PDT) Temp. Heat Index Dew Point Humidity Pressure Visibility Wind Dir Wind Speed Gust Speed Precip Events Conditions
12:53 AM 60.1 °F - 55.9 °F 86% 29.90 in 10.0 mi North 3.5 mph - N/A   Clear
1:53 AM 57.0 °F - 55.0 °F 93% 29.91 in 10.0 mi Calm Calm - N/A   Clear
2:53 AM 57.0 °F - 55.0 °F 93% 29.91 in 10.0 mi North 3.5 mph - N/A   Clear
3:53 AM 55.9 °F - 54.0 °F 93% 29.92 in 10.0 mi NNW 3.5 mph - N/A   Clear
4:53 AM 55.9 °F - 54.0 °F 93% 29.92 in 10.0 mi North 4.6 mph - N/A   Clear
5:53 AM 55.0 °F - 53.1 °F 93% 29.93 in 10.0 mi Calm Calm - N/A   Clear
6:53 AM 54.0 °F - 53.1 °F 97% 29.95 in 10.0 mi WNW 3.5 mph - N/A   Clear
7:53 AM 61.0 °F - 55.0 °F 81% 29.97 in 10.0 mi Calm Calm - N/A   Clear
8:53 AM 68.0 °F - 59.0 °F 73% 29.98 in 10.0 mi NNW 5.8 mph - N/A   Clear
9:53 AM 73.9 °F - 55.9 °F 53% 29.98 in 10.0 mi North 6.9 mph - N/A   Clear
10:53 AM 79.0 °F - 59.0 °F 50% 29.97 in 10.0 mi North 9.2 mph - N/A   Clear
11:53 AM 82.0 °F 81.7 °F 57.0 °F 42% 29.96 in 10.0 mi NNW 8.1 mph - N/A   Clear
12:53 PM 84.9 °F 84.2 °F 57.9 °F 40% 29.94 in 10.0 mi NNW 9.2 mph - N/A   Clear
1:53 PM 89.1 °F 88.2 °F 59.0 °F 36% 29.91 in 10.0 mi North 8.1 mph - N/A   Clear
2:53 PM 90.0 °F 89.1 °F 59.0 °F 35% 29.89 in 10.0 mi NNW 8.1 mph - N/A   Clear
3:53 PM 91.0 °F 90.2 °F 59.0 °F 34% 29.87 in 10.0 mi NNW 9.2 mph - N/A   Clear
4:53 PM 90.0 °F 89.1 °F 59.0 °F 35% 29.86 in 10.0 mi NNW 10.4 mph - N/A   Clear
5:53 PM 87.1 °F 87.0 °F 61.0 °F 41% 29.85 in 10.0 mi NNW 9.2 mph - N/A   Clear
6:53 PM 79.0 °F - 61.0 °F 54% 29.85 in 10.0 mi North 9.2 mph - N/A   Clear
7:53 PM 72.0 °F - 59.0 °F 64% 29.86 in 10.0 mi North 8.1 mph - N/A   Clear
8:53 PM 69.1 °F - 60.1 °F 73% 29.88 in 10.0 mi North 9.2 mph - N/A   Clear
9:53 PM 70.0 °F - 57.9 °F 65% 29.89 in 10.0 mi WNW 5.8 mph - N/A   Clear
10:53 PM 66.9 °F - 57.0 °F 70% 29.90 in 10.0 mi NW 5.8 mph - N/A   Clear
11:53 PM 66.9 °F - 57.0 °F 70% 29.91 in 10.0 mi NW 6.9 mph - N/A   Clear